Regional Weather Roundup
Issued by NWS

Home | Current Version | Previous Version | Graphics & Text | Print | Product List | Glossary On
Versions: 1 2 3 4 5 6 7 8 9 10 11 12 13 14 15 16 17 18 19 20 21 22 23 24 25 26 27 28 29 30 31 32 33 34 35 36 37 38 39 40 41 42 43 44 45 46 47 48 49 50
707
ASUS45 KCYS 191610
RWRWY

WYOMING REGIONAL WEATHER ROUNDUP
NATIONAL WEATHER SERVICE CHEYENNE WY
900 AM MST SUN FEB 19 2017

NOTE:  "FAIR" INDICATES FEW OR NO CLOUDS BELOW 12,000 FEET
WITH NO SIGNIFICANT WEATHER AND/OR OBSTRUCTIONS TO VISIBILITY.

WYZ001-191700-
YELLOWSTONE NATIONAL PARK

CITY           SKY/WX    TMP DP  RH WIND       PRES   REMARKS
LK YELLOWSTONE   N/A     29  28  96 CALM      29.62R
W YELLOWSTONE  NOT AVBL

$$
WYZ002>013-054>058-071-098>099-191700-
NORTHERN WYOMING

CITY           SKY/WX    TMP DP  RH WIND       PRES   REMARKS
JACKSON        CLOUDY    34  34 100 S5        29.61R WCI  30
CODY           FAIR      44  29  55 W8        29.50F
GREYBULL       FAIR      43  31  62 SE7       29.49F
WORLAND        FAIR      43  33  68 S20       29.50F
SHERIDAN       FAIR      33  30  88 SW12      29.46F WCI  24
BUFFALO        FAIR      51  28  41 S20       29.47F
GILLETTE       FAIR      49  32  52 SW18G30   29.50S
HULETT         FAIR      52  32  46 SW16G23   29.53F
NEWCASTLE      FAIR      48  28  46 S9        29.60S

$$
WYZ014>020-022>026-101>103-191700-
CENTRAL WYOMING

CITY           SKY/WX    TMP DP  RH WIND       PRES   REMARKS
BIG PINEY      LGT SNOW  31  30  96 S8        29.65S WCI  23
PINEDALE       LGT SNOW  32  32 100 S7        29.66S VSB 1   WCI  26
DUBOIS         CLOUDY    34  30  86 SW3       29.56F
LANDER         FAIR      36  30  79 E3        29.54F
RIVERTON       FAIR      36  31  82 CALM      29.55F
CASPER         FAIR      47  31  53 S24G31    29.59F
DOUGLAS        FAIR      51  30  44 SW3       29.60F

$$
WYZ021-027>030-104>119-191700-
SOUTHERN WYOMING

CITY           SKY/WX    TMP DP  RH WIND       PRES   REMARKS
EVANSTON       SNOW      33  30  88 W18       29.69R VSB 1/2 WCI  22
KEMMERER       LGT SNOW  32  32 100 W13       29.67S VSB 3/4 WCI  22
FORT BRIDGER   FAIR      32  31  96 W3        29.69R
ROCK SPRINGS   FAIR      41  29  62 SW9       29.64S
DIXON            N/A     34  31  91 CALM      29.76S
RAWLINS        FAIR      41  31  67 SW13G23   29.68F
SARATOGA       CLOUDY    41  30  65 SE6       29.73R
LARAMIE        FAIR      33  28  81 SW3       29.72R
CHEYENNE       FAIR      45  25  45 S6        29.70R
TORRINGTON     FAIR      42  30  62 CALM      29.64F
PINE BLUFFS    FAIR      37  32  81 SE5       29.70R WCI  34

$$




USA.gov is the U.S. government's official web portal to all federal, state and local government web resources and services.